Date,TemperatureHighF,TemperatureAvgF,TemperatureLowF,DewpointHighF,DewpointAvgF,DewpointLowF,HumidityHigh,HumidityAvg,HumidityLow,PressureMaxIn,PressureMinIn,WindSpeedMaxMPH,WindSpeedAvgMPH,GustSpeedMaxMPH,PrecipitationSumIn
2013-2-1,1.2,-7.3,-19.1,-9.4,-19.7,-32.6,60,53,47,30.19,29.92,13,5,17,0.00
2013-2-2,10.4,0.3,-13.2,-0.8,-11.1,-24.8,65,57,44,30.07,29.88,17,4,23,0.00
2013-2-3,15.8,7.2,-0.9,3.1,-3.2,-10.9,66,62,51,30.01,29.89,14,3,21,0.00
2013-2-4,16.7,7.4,-6.5,8.4,-3.4,-16.8,74,61,46,29.98,29.58,16,5,21,0.00
2013-2-5,27.5,14.5,1.9,23.0,4.9,-8.2,83,66,50,29.98,29.57,17,6,23,0.00
2013-2-6,25.9,17.6,5.5,16.0,8.7,-4.2,75,67,61,29.99,29.78,19,8,24,0.00
2013-2-7,25.7,19.4,6.4,17.2,12.1,-1.7,80,73,64,30.23,29.95,12,6,15,0.00
2013-2-8,26.2,17.1,5.5,16.7,8.6,-2.9,78,69,57,30.23,29.97,25,11,30,0.00
2013-2-9,29.5,27.0,22.6,26.4,22.1,16.6,88,82,75,29.98,29.77,21,12,26,0.00
2013-2-10,29.7,26.1,23.7,26.6,21.6,19.3,88,83,78,29.77,29.33,21,13,30,0.00
2013-2-11,23.7,18.8,10.4,19.4,13.2,4.2,84,78,72,29.95,29.47,21,10,30,0.01
2013-2-12,32.4,20.5,10.9,20.8,11.3,4.1,77,68,52,29.93,29.73,11,4,16,0.00
2013-2-13,37.9,25.3,10.4,26.3,18.2,3.6,87,75,53,29.73,29.52,11,3,14,0.00
2013-2-14,27.5,13.4,-1.5,22.8,3.8,-11.8,82,65,45,30.16,29.66,14,5,20,0.00
2013-2-15,17.2,4.6,-9.9,0.5,-7.7,-21.7,66,56,43,30.26,30.16,8,3,11,0.00
2013-2-16,16.0,9.9,5.5,4.6,0.1,-3.5,67,64,54,30.17,29.92,15,7,19,0.00
2013-2-17,30.0,22.8,11.5,23.8,14.7,2.7,78,71,63,29.93,29.46,24,15,28,0.00
2013-2-18,29.5,11.8,-4.2,26.1,2.7,-14.6,87,66,54,29.93,29.44,31,15,44,0.06
2013-2-19,-2.7,-8.6,-17.5,-12.9,-20.6,-31.5,60,54,46,30.34,29.93,24,13,36,0.00
2013-2-20,13.6,-3.3,-24.0,0.0,-18.5,-37.6,63,47,39,30.35,30.26,11,4,14,0.00
2013-2-21,23.9,13.4,3.6,5.7,-3.0,-11.7,56,48,38,30.30,30.02,14,8,19,0.00
2013-2-22,27.7,19.0,11.7,15.9,10.5,5.1,77,69,56,30.03,29.82,11,5,14,0.00
2013-2-23,34.3,16.5,0.9,17.4,6.4,-9.2,74,65,47,29.88,29.79,8,1,10,0.04
2013-2-24,34.9,12.7,-3.8,18.0,-0.4,-14.6,67,56,41,30.01,29.88,8,1,10,0.00
2013-2-25,32.9,20.1,8.2,20.2,11.9,-1.3,81,70,59,30.03,29.97,7,2,8,0.00
2013-2-26,31.3,20.1,12.4,22.7,12.9,5.6,80,73,61,29.99,29.92,8,3,12,0.00
2013-2-27,23.0,15.8,5.7,15.6,7.3,-2.7,79,69,56,30.06,29.93,20,6,26,0.00
2013-2-28,30.4,22.9,12.7,19.6,13.7,5.7,78,68,57,30.19,30.06,11,4,14,0.00